Probability
0 0 0 0 0 0 0 0 0 0 0 0 0 0 0 0 0 0 0 0 0 0 0 0 0 0 0 0 0 0 0 0 0 0 0 0 0 0 0 0 0 0 0
0 0 0 0 0 0 0 0 0 0 0 0 0 0 0 0 0 0 0 0 0 0 0 0 0 0 0 0 0 0 0 0 0 0 0 0 0 0 0 0 0 0 0
0 0 0 0 0 0 0 0 0 0 0 0 0 0 0 0 0 0 0 0 0 0 0 0 0 0 0 0 0 0 0 0 0 0 0 0 0 0 0 0 0 0 0
0 0 0 0 0 0 0 0 0 0 0 0 0 0 0 0 0 0 0 0 0 0 0 0 0 0 0 0 0 0 0 0 0 0 0 0 0 0 0 0 0 0 0
0 0 0 0 0 0 0 0 0 0 0 0 0 0 0 0 0 0 0 0 0 0 0 0 0 0 0 0 0 0 0 0 0 0 0 0 0 0 0 0 0 0 0
0 0 0 0 0 0 0 0 0 0 0 0 0 0 0 0 0 0 0 0 0 0 0 0 0 0 0 0 0 0 0 0 0 0 0 0 0 0 0 0 0 0 0
0 0 0 0 0 0 0 0 0 0 0 0 0 0 0 0 0 0 0 0 0 0 0 0 0 0 0 0 0 0 0 0 0 0 0 0 0 0 0 0 0 0 0
0 0 0 0 0 0 0 0 0 0 0 0 0 0 0 0 0 0 0 0 0 0 0 0 0 0 0 0 0 0 0 0 0 0 0 0 0 0 0 0 0 0 0
0 0 0 0 0 0 0 0 0 0 0 0 0 0 0 0 0 0 0 0 0 0 0 0 0 0 0 0 0 0 0 0 0 0 0 0 0 0 0 0 0 0 0
0 0 0 0 0 0 0 0 0 0 0 0 0 0 0 0 0 0 0 0 0 0 0 0 0 0 0 0 0 0 0 0 0 0 0 0 0 0 0 0 0 0 0
0 0 0 0 0 0 0 0 0 0 0 0 0 0 0 0 0 0 0 0 0 0 0 0 0 0 0 0 0 0 0 0 0 0 0 0 0 0 0 0 0 0 0
0 0 0 0 0 0 0 0 0 0 0 0 0 0 0 0 0 0 0 0 0 0 0 0 0 0 0 0 0 0 0 0 0 0 0 0 0 0 0 0 0 0 0
0 0 0 0 0 0 0 0 0 0 0 0 0 0 0 0 0 0 0 0 0 0 0 0 0 0 0 0 0 0 0 0 0 0 0 0 0 0 0 0 0 0 0
0 0 0 0 0 0 0 0 0 0 0 0 0 0 0 0 0 0 0 0 0 0 0 0 0 0 0 0 0 0 0 0 0 0 0 0 0 0 0 0 0 0 0
0 0 0 0 0 0 0 0 0 0 0 0 0 0 0 0 0 0 0 0 0 0 0 0 0 0 0 0 0 0 0 0 0 0 0 0 0 0 0 0 0 0 0
0 0 0 0 0 0 0 0 0 0 0 0 0 0 0 0 0 0 0 0 0 0 0 0 0 0 0 0 0 0 0 0 0 0 0 0 0 0 0 0 0 0 0
0 0 0 0 0 0 0 0 0 0 0 0 0 0 0 0 0 0 0 0 0 0 0 0 0 0 0 0 0 0 0 0 0 0 0 0 0 0 0 0 0 0 0
0 0 0 0 0 0 0 0 0 0 0 0 0 0 0 0 0 0 0 0 0 0 0 0 0 0 0 0 0 0 0 0 0 0 0 0 0 0 0 0 0 0 0
0 0 0 0 0 0 0 0 0 0 0 0 0 0 0 0 0 0 0 0 0 0 0 0 0 0 0 0 0 0 0 0 0 0 0 0 0 0 0 0 0 0 0
0 0 0 0 0 0 0 0 0 0 0 0 0 0 0 0 0 0 0 0 0 0 0 0 0 0 0 0 0 0 0 0 0 0 0 0 0 0 0 0 0 0 0
0 0 0 0 0 0 0 0 0 0 0 0 0 0 0 0 0 0 0 0 0 0 0 0 0 0 0 0 0 0 0 0 0 0 0 0 0 0 0 0 0 0 0
0 0 0 0 0 0 0 0 0 0 0 0 0 0 0 0 0 0 0 0 0 0 0 0 0 0 0 0 0 0 0 0 0 0 0 0 0 0 0 0 0 0 0
0 0 0 0 0 0 0 0 0 0 0 0 0 0 0 0 0 0 0 0 0 0 0 0 0 0 0 0 0 0 0 0 0 0 0 0 0 0 0 0 0 0 0
0 0 0 0 0 0 0 0 0 0 0 0 0 0 0 0 0 0 0 0 0 0 0 0 0 0 0 0 0 0 0 0 0 0 0 0 0 0 0 0 0 0 0
0 0 0 0 0 0 0 0 0 0 0 0 0 0 0 0 0 0 0 0 0 0 0 0 0 0 0 0 0 0 0 0 0 0 0 0 0 0 0 0 0 0 0
0 0 0 0 0 0 0 0 0 0 0 0 0 0 0 0 0 0 0 0 0 0 0 0 0 0 0 0 0 0 0 0 0 0 0 0 0 0 0 0 0 0 0
Wind_Speed
8 8 8 7 8 8 7 7 7 6 6 6 6 5 5 4 3 3 2 2 1 1 2 2 3 3 3 3 3 3 3 3 9 11 6 6 8 10 12 10 10 10 11
8 8 8 8 8 7 7 7 7 7 6 6 6 5 4 4 3 2 1 1 1 2 2 3 4 3 4 3 3 4 4 4 6 14 13 8 8 9 11 12 12 12 9
9 9 8 8 8 8 8 8 7 7 7 6 6 5 4 4 3 2 2 2 2 3 3 4 4 4 5 4 4 4 4 6 5 10 14 10 8 8 11 12 12 8 11
10 10 10 9 9 8 8 8 8 7 7 7 6 5 5 4 4 3 3 3 3 4 4 5 5 5 5 5 5 5 5 6 6 9 12 11 10 9 9 10 12 9 10
11 11 10 9 8 8 8 8 7 7 7 7 6 5 5 4 4 5 4 4 4 4 5 5 6 8 10 8 7 6 6 6 6 9 12 12 11 10 11 11 13 13 10
12 12 10 10 9 9 9 8 8 7 6 6 6 6 6 5 9 11 7 4 4 5 6 6 6 6 10 14 15 15 13 9 7 8 11 13 14 13 12 12 14 15 15
12 10 10 10 10 10 9 9 9 8 7 7 7 7 7 9 13 12 12 6 5 6 6 7 7 5 5 6 11 15 14 17 18 15 15 16 16 15 16 17 16 17 17
11 10 10 10 10 9 9 9 9 7 7 7 8 8 7 9 14 13 12 7 5 7 8 8 8 7 7 8 8 9 10 11 15 13 13 15 15 16 16 17 18 17 15
12 12 11 11 11 10 10 10 8 7 7 8 6 7 8 9 13 13 12 4 6 8 8 8 8 7 12 15 10 8 11 11 15 20 22 23 27 28 23 14 12 13 14
13 12 11 10 11 11 11 9 7 7 7 7 7 7 8 7 12 14 13 4 6 7 7 8 10 12 14 15 9 7 10 11 10 11 15 18 17 18 22 14 11 11 13
9 9 9 10 10 10 8 6 6 6 6 6 6 6 6 7 11 15 15 7 6 6 6 6 7 13 15 15 13 7 12 13 6 7 9 10 10 10 11 11 11 11 12
9 9 9 9 8 7 8 7 6 7 7 6 6 6 6 6 10 13 17 16 13 7 7 6 7 14 15 15 10 12 17 12 4 5 7 8 9 9 10 11 13 13 13
9 8 7 7 6 7 8 8 6 6 6 6 6 7 7 6 8 16 16 17 18 10 7 13 15 17 13 8 10 14 9 3 4 5 7 8 9 10 11 11 12 12 13
9 8 7 7 6 6 5 6 7 8 8 7 7 7 6 5 5 6 6 7 11 11 8 9 13 14 10 8 5 6 4 4 5 6 8 8 9 9 9 9 10 10 11
7 7 6 6 6 6 6 6 7 6 7 7 6 5 5 5 8 12 7 6 6 7 6 3 3 2 3 3 3 4 4 4 5 5 6 7 9 9 10 9 8 10 10
6 6 6 5 5 5 5 4 10 10 12 14 12 9 6 9 11 14 15 16 16 16 9 4 4 4 5 4 4 4 4 4 4 5 5 6 8 9 10 10 9 9 10
6 6 5 5 5 5 5 4 3 5 11 12 13 13 12 12 14 15 16 16 17 15 8 4 5 5 5 4 4 4 5 4 4 5 6 6 7 8 9 10 10 10 10
5 5 5 5 5 4 4 3 3 3 2 2 5 9 12 13 14 15 16 13 9 6 4 4 5 4 4 5 5 5 5 4 4 5 5 6 6 8 9 10 10 11 11
5 4 4 4 4 4 3 3 2 2 1 1 1 3 6 10 13 14 13 7 5 5 4 4 4 4 4 4 4 4 5 5 5 5 5 6 6 7 8 9 10 13 12
4 6 5 4 4 4 3 3 2 2 2 2 3 3 2 2 3 4 4 4 4 4 4 4 4 4 4 4 4 4 4 5 5 5 5 6 6 6 9 11 10 11 10
5 5 6 5 4 3 3 2 2 2 2 2 3 4 8 4 4 5 5 5 5 5 4 4 4 4 5 4 4 5 6 6 5 5 5 6 6 7 7 9 10 10 10
5 4 4 4 3 3 2 2 2 2 2 3 3 4 10 5 3 4 4 4 4 4 4 4 4 4 5 5 5 5 6 6 6 5 5 6 6 6 8 9 9 9 10
5 5 4 4 3 3 2 2 2 2 3 3 3 3 4 4 4 5 5 5 4 4 4 4 5 5 5 5 5 6 7 7 6 5 5 6 6 7 7 9 10 10 10
4 4 4 3 3 2 2 2 3 3 4 4 4 4 4 5 5 6 6 5 5 4 4 5 6 8 9 7 5 5 6 7 6 6 7 8 9 8 8 9 9 9 9
3 3 3 2 2 2 2 3 3 4 4 4 4 4 5 5 5 5 5 5 6 6 7 6 6 7 10 11 9 8 10 13 10 7 6 7 10 11 10 9 8 7 8
2 2 2 2 2 2 3 3 4 4 4 4 4 5 5 5 5 5 5 5 5 6 6 6 8 9 10 9 10 12 13 14 14 13 10 9 10 10 9 7 7 6 7
Wind_Direction
150 144 138 137 136 133 135 140 141 143 146 145 142 136 131 124 112 102 101 85 55 348 325 320 305 299 296 299 298 287 276 272 282 290 292 307 314 315 314 309 309 307 310
152 146 145 144 142 144 149 149 147 149 151 148 144 141 142 140 136 133 139 155 238 276 285 289 286 292 290 287 285 283 280 273 278 292 300 309 310 310 308 310 310 310 309
155 153 154 156 157 160 159 155 154 155 154 151 152 158 161 162 165 175 196 222 237 251 260 265 271 278 279 276 281 280 279 286 281 288 296 305 306 308 308 304 300 300 306
162 163 167 170 169 168 162 160 162 163 162 165 168 170 172 175 185 199 212 226 241 252 254 255 258 259 267 274 280 277 283 285 288 290 294 301 305 304 301 309 308 303 302
170 174 177 172 167 165 165 166 168 170 172 170 171 177 180 187 200 205 213 226 242 257 259 256 256 261 267 273 275 267 271 275 282 289 293 298 301 309 309 308 303 304 296
176 182 174 169 169 171 170 168 170 175 175 172 181 184 195 206 219 223 221 228 246 257 266 265 264 262 272 279 285 287 284 282 281 282 289 291 296 300 301 299 300 300 302
178 177 173 171 174 175 170 171 181 184 182 188 193 194 207 220 227 230 234 236 242 253 263 268 271 264 262 271 281 287 290 289 288 286 286 287 292 295 294 293 289 289 290
176 176 174 173 177 173 173 184 189 185 191 197 202 204 211 224 232 235 238 239 242 252 255 257 263 267 266 273 272 273 278 283 285 284 280 284 287 289 286 287 290 291 290
180 181 180 178 176 177 187 193 191 189 197 201 201 202 212 226 232 236 238 225 245 255 256 255 255 258 268 277 280 279 285 286 293 294 295 297 299 301 302 301 297 295 294
186 184 180 178 181 188 195 193 186 191 200 198 209 204 211 220 231 238 238 223 240 252 256 258 256 259 265 273 275 276 285 293 300 305 307 306 304 301 301 297 296 295 296
174 169 173 181 187 190 186 181 181 185 188 199 213 215 215 218 233 240 240 224 226 242 248 252 255 266 272 278 286 286 290 302 316 316 308 304 303 300 299 299 299 299 298
159 167 176 180 180 177 176 178 176 177 188 202 214 231 228 224 226 239 242 241 236 229 239 249 256 268 273 282 295 297 302 315 322 304 299 300 301 302 303 304 302 297 290
159 170 173 169 170 169 174 176 171 177 193 206 211 229 233 220 228 235 241 243 246 242 240 250 258 265 275 289 294 296 307 305 287 288 292 295 298 300 304 303 300 296 291
165 170 165 167 172 170 174 176 181 190 199 208 213 224 227 216 208 216 226 241 249 255 261 260 266 270 273 280 283 288 281 271 274 280 287 294 301 302 301 303 305 309 305
167 168 168 173 175 180 190 198 196 202 199 204 213 211 213 227 225 223 219 220 221 232 237 223 209 222 239 248 253 254 260 267 271 275 287 297 301 302 303 306 303 303 303
170 175 176 175 177 178 184 216 236 227 232 238 234 227 232 244 254 249 248 247 246 246 237 212 214 219 231 238 245 256 259 262 269 281 287 290 297 302 304 305 303 302 304
178 176 172 171 171 175 178 187 218 245 242 245 249 253 252 254 258 259 260 260 258 255 242 222 220 221 228 234 240 248 259 265 274 281 285 288 294 298 300 303 306 307 306
162 159 157 159 158 163 170 174 177 187 217 263 271 273 274 275 274 273 271 268 262 249 220 217 222 223 226 233 240 248 260 271 274 276 280 284 287 293 298 302 304 306 308
141 134 128 125 126 129 131 134 140 161 204 240 276 294 291 293 291 284 280 264 249 237 226 223 222 223 228 232 238 244 252 262 268 273 277 280 284 292 296 299 303 304 307
111 117 115 117 117 119 124 136 154 182 213 234 245 252 257 266 272 282 277 271 258 247 235 229 226 225 228 232 237 243 253 259 265 267 274 280 285 288 295 299 301 305 308
111 113 115 116 124 133 141 158 175 197 222 241 250 266 272 252 244 245 247 249 248 244 239 235 233 231 231 231 234 240 247 256 258 264 272 279 284 289 293 294 296 301 307
112 119 122 123 125 131 140 156 182 212 238 256 264 285 296 301 291 276 260 253 245 236 229 230 237 236 232 229 230 235 244 253 256 259 268 277 283 287 290 292 297 305 310
112 120 120 121 127 135 146 182 209 225 242 253 264 268 273 271 270 272 272 269 261 250 236 231 242 249 244 237 231 230 240 248 248 250 266 278 281 281 284 289 295 304 310
114 123 130 137 145 160 186 212 226 235 242 248 253 257 258 259 261 265 266 265 262 255 246 242 245 250 252 249 244 240 243 249 247 246 249 262 272 276 278 280 288 298 306
113 120 130 146 165 190 214 231 239 244 247 249 251 254 257 258 260 262 262 261 261 259 257 252 253 254 255 253 251 249 253 260 261 251 248 254 260 264 268 274 283 296 303
133 142 158 178 198 214 225 237 245 248 250 252 253 255 257 259 260 262 262 261 262 262 263 259 254 255 257 258 258 260 259 260 256 246 236 245 255 263 266 270 279 287 296